contact: severine.martini@mio.osupytheas.fr, dominique.lefevre@mio.osupytheas.fr
Project:EMSO Ligure-ouest http://www.emso-fr.org/EMSO-France
Sensor Optode, line 4330 Serial 272 
DOI : "https://doi.org/10.17882/97948" 
Title:EMSO Ligure Ouest : Data BathyDock capteur Optode - deploiement "2023-04-28"
Datetime,Profondeur,Latitude,Longitude,optode_type,serial,O2_concentration,O2_saturation,Temperature,Calibrated_Phase,Temp_Compensated_Phase,phase_blue_light,phase_red_light,Amplitude_blue_light,Amplitude_red_light,thermistor_bridge
time,m,degree_north,degree_east,1,1,umol.l-1,%,degree_C,degree,degree,degree,degree,mV,mV,mV
2023-12-26T00:00:07,2420,42.8014,5.9826,4330,272,186.424,57.099,13.312,36.042,36.622,41.212,4.590,295.8,545.4,291.2
2023-12-26T00:03:07,2420,42.8014,5.9826,4330,272,186.352,57.078,13.312,36.046,36.626,41.212,4.586,295.8,545.4,291.1
2023-12-26T00:06:07,2420,42.8014,5.9826,4330,272,186.255,57.041,13.307,36.054,36.634,41.216,4.582,295.7,545.4,291.3
2023-12-26T00:09:07,2420,42.8014,5.9826,4330,272,186.522,57.123,13.308,36.037,36.617,41.210,4.593,295.7,545.4,291.3
2023-12-26T00:12:08,2420,42.8014,5.9826,4330,272,186.332,57.066,13.308,36.049,36.629,41.219,4.590,295.8,545.4,291.3
2023-12-26T00:15:08,2420,42.8014,5.9826,4330,272,186.415,57.092,13.309,36.043,36.623,41.209,4.586,295.8,545.4,291.3
2023-12-26T00:18:08,2420,42.8014,5.9826,4330,272,186.490,57.115,13.309,36.038,36.618,41.206,4.588,295.8,545.3,291.3
2023-12-26T00:21:07,2420,42.8014,5.9826,4330,272,186.577,57.143,13.310,36.032,36.612,41.201,4.589,295.8,545.4,291.2
2023-12-26T00:24:07,2420,42.8014,5.9826,4330,272,186.334,57.067,13.309,36.048,36.628,41.222,4.594,295.7,545.4,291.3
2023-12-26T00:27:07,2420,42.8014,5.9826,4330,272,186.491,57.117,13.310,36.038,36.618,41.207,4.589,295.8,545.4,291.2
2023-12-26T00:30:07,2420,42.8014,5.9826,4330,272,186.345,57.073,13.310,36.047,36.627,41.216,4.589,295.8,545.4,291.2
2023-12-26T00:33:07,2420,42.8014,5.9826,4330,272,186.375,57.081,13.309,36.046,36.626,41.213,4.588,295.9,545.4,291.2
2023-12-26T00:36:07,2420,42.8014,5.9826,4330,272,186.588,57.149,13.312,36.030,36.610,41.202,4.592,295.7,545.4,291.2
2023-12-26T00:39:07,2420,42.8014,5.9826,4330,272,186.616,57.153,13.308,36.031,36.611,41.201,4.590,295.7,545.4,291.3
2023-12-26T00:42:07,2420,42.8014,5.9826,4330,272,186.465,57.108,13.309,36.040,36.620,41.212,4.592,295.8,545.4,291.3
2023-12-26T00:45:08,2420,42.8014,5.9826,4330,272,186.462,57.106,13.309,36.041,36.621,41.209,4.589,295.7,545.4,291.3
2023-12-26T00:48:08,2420,42.8014,5.9826,4330,272,186.394,57.087,13.310,36.044,36.624,41.204,4.579,295.7,545.4,291.2
2023-12-26T00:51:08,2420,42.8014,5.9826,4330,272,186.412,57.092,13.309,36.043,36.623,41.214,4.590,295.7,545.4,291.3
2023-12-26T00:54:08,2420,42.8014,5.9826,4330,272,186.365,57.076,13.308,36.046,36.626,41.210,4.584,295.8,545.5,291.3
2023-12-26T00:57:07,2420,42.8014,5.9826,4330,272,186.449,57.101,13.308,36.041,36.622,41.214,4.592,295.7,545.4,291.3
2023-12-26T01:00:07,2420,42.8014,5.9826,4330,272,186.370,57.082,13.312,36.045,36.625,41.210,4.585,295.7,545.4,291.2
2023-12-26T01:03:07,2420,42.8014,5.9826,4330,272,186.400,57.088,13.309,36.044,36.624,41.207,4.583,295.7,545.4,291.2
2023-12-26T01:06:07,2420,42.8014,5.9826,4330,272,186.226,57.034,13.309,36.055,36.635,41.218,4.582,295.7,545.4,291.3
2023-12-26T01:09:07,2420,42.8014,5.9826,4330,272,186.281,57.051,13.309,36.052,36.632,41.218,4.586,295.8,545.3,291.3
2023-12-26T01:12:07,2420,42.8014,5.9826,4330,272,186.452,57.106,13.310,36.040,36.620,41.209,4.588,295.7,545.4,291.2
2023-12-26T01:15:08,2420,42.8014,5.9826,4330,272,186.413,57.093,13.310,36.043,36.623,41.209,4.586,295.7,545.4,291.2
2023-12-26T01:18:08,2420,42.8014,5.9826,4330,272,186.449,57.100,13.307,36.042,36.622,41.212,4.590,295.7,545.5,291.3
2023-12-26T01:21:08,2420,42.8014,5.9826,4330,272,186.707,57.179,13.307,36.025,36.605,41.195,4.590,295.8,545.4,291.3
2023-12-26T01:24:07,2420,42.8014,5.9826,4330,272,186.484,57.113,13.308,36.039,36.619,41.209,4.590,295.7,545.4,291.3
2023-12-26T01:27:07,2420,42.8014,5.9826,4330,272,186.635,57.161,13.310,36.028,36.609,41.196,4.587,295.8,545.4,291.2
2023-12-26T01:30:07,2420,42.8014,5.9826,4330,272,186.390,57.085,13.309,36.045,36.625,41.211,4.586,295.7,545.4,291.3
2023-12-26T01:33:07,2420,42.8014,5.9826,4330,272,186.443,57.106,13.313,36.040,36.620,41.204,4.584,295.7,545.5,291.1
2023-12-26T01:36:07,2420,42.8014,5.9826,4330,272,186.564,57.142,13.312,36.032,36.612,41.198,4.586,295.8,545.5,291.2
2023-12-26T01:39:07,2420,42.8014,5.9826,4330,272,186.486,57.114,13.309,36.039,36.619,41.204,4.585,295.7,545.4,291.3
2023-12-26T01:42:08,2420,42.8014,5.9826,4330,272,186.416,57.093,13.309,36.043,36.623,41.210,4.587,295.8,545.5,291.3
2023-12-26T01:45:08,2420,42.8014,5.9826,4330,272,186.623,57.155,13.308,36.030,36.611,41.198,4.588,295.7,545.5,291.3
2023-12-26T01:48:08,2420,42.8014,5.9826,4330,272,186.342,57.068,13.307,36.049,36.629,41.211,4.583,295.7,545.3,291.3
2023-12-26T01:51:08,2420,42.8014,5.9826,4330,272,186.139,57.008,13.309,36.061,36.641,41.231,4.590,295.7,545.4,291.3
2023-12-26T01:54:07,2420,42.8014,5.9826,4330,272,186.509,57.119,13.307,36.038,36.618,41.207,4.589,295.7,545.4,291.3
2023-12-26T01:57:07,2420,42.8014,5.9826,4330,272,186.493,57.113,13.306,36.039,36.619,41.202,4.583,295.8,545.4,291.3
2023-12-26T02:00:07,2420,42.8014,5.9826,4330,272,186.461,57.107,13.309,36.040,36.620,41.205,4.585,295.8,545.5,291.3
2023-12-26T02:03:07,2420,42.8014,5.9826,4330,272,186.638,57.163,13.310,36.028,36.608,41.195,4.586,295.7,545.4,291.2
2023-12-26T02:06:07,2420,42.8014,5.9826,4330,272,186.676,57.174,13.310,36.025,36.605,41.196,4.591,295.8,545.5,291.2
2023-12-26T02:09:07,2420,42.8014,5.9826,4330,272,186.528,57.126,13.308,36.037,36.617,41.203,4.587,295.7,545.4,291.3
2023-12-26T02:12:08,2420,42.8014,5.9826,4330,272,186.592,57.146,13.308,36.031,36.612,41.203,4.592,295.7,545.4,291.3
2023-12-26T02:15:08,2420,42.8014,5.9826,4330,272,186.496,57.121,13.312,36.037,36.617,41.202,4.585,295.7,545.4,291.2
2023-12-26T02:18:08,2420,42.8014,5.9826,4330,272,186.179,57.022,13.311,36.058,36.637,41.226,4.588,295.7,545.4,291.2
2023-12-26T02:21:08,2420,42.8014,5.9826,4330,272,186.547,57.137,13.313,36.033,36.613,41.198,4.585,295.8,545.3,291.1
2023-12-26T02:24:07,2420,42.8014,5.9826,4330,272,186.115,57.002,13.310,36.062,36.642,41.229,4.587,295.8,545.4,291.2
2023-12-26T02:27:07,2420,42.8014,5.9826,4330,272,186.429,57.099,13.310,36.042,36.622,41.211,4.589,295.8,545.4,291.2
2023-12-26T02:30:07,2420,42.8014,5.9826,4330,272,186.529,57.134,13.314,36.033,36.613,41.211,4.598,295.7,545.4,291.1
2023-12-26T02:33:07,2420,42.8014,5.9826,4330,272,186.488,57.120,13.313,36.036,36.616,41.207,4.590,295.8,545.4,291.1
2023-12-26T02:36:07,2420,42.8014,5.9826,4330,272,186.397,57.092,13.313,36.043,36.623,41.212,4.589,295.8,545.4,291.1
2023-12-26T02:39:07,2420,42.8014,5.9826,4330,272,186.367,57.077,13.309,36.046,36.626,41.209,4.583,295.8,545.4,291.3
2023-12-26T02:42:08,2420,42.8014,5.9826,4330,272,186.538,57.129,13.309,36.036,36.616,41.203,4.587,295.8,545.4,291.3
2023-12-26T02:45:08,2420,42.8014,5.9826,4330,272,186.564,57.142,13.312,36.032,36.612,41.198,4.586,295.7,545.4,291.2
2023-12-26T02:48:08,2420,42.8014,5.9826,4330,272,186.158,57.015,13.310,36.060,36.639,41.224,4.584,295.9,545.4,291.2
2023-12-26T02:51:08,2420,42.8014,5.9826,4330,272,186.460,57.107,13.310,36.040,36.620,41.212,4.592,295.8,545.4,291.2
2023-12-26T02:54:07,2420,42.8014,5.9826,4330,272,186.189,57.024,13.310,36.057,36.637,41.215,4.577,295.7,545.3,291.2
2023-12-26T02:57:07,2420,42.8014,5.9826,4330,272,186.686,57.178,13.311,36.025,36.605,41.195,4.591,295.7,545.5,291.2
2023-12-26T03:00:07,2420,42.8014,5.9826,4330,272,186.497,57.115,13.307,36.039,36.619,41.204,4.585,295.7,545.4,291.3
2023-12-26T03:03:07,2420,42.8014,5.9826,4330,272,186.391,57.084,13.308,36.045,36.625,41.215,4.590,295.7,545.4,291.3
2023-12-26T03:06:08,2420,42.8014,5.9826,4330,272,186.311,57.063,13.311,36.050,36.630,41.218,4.588,295.7,545.4,291.2
2023-12-26T03:09:08,2420,42.8014,5.9826,4330,272,186.356,57.076,13.310,36.046,36.626,41.214,4.587,295.7,545.3,291.2
2023-12-26T03:12:07,2420,42.8014,5.9826,4330,272,186.492,57.116,13.309,36.038,36.618,41.204,4.586,295.7,545.4,291.3
2023-12-26T03:15:07,2420,42.8014,5.9826,4330,272,186.324,57.063,13.308,36.050,36.630,41.215,4.585,295.8,545.4,291.3
2023-12-26T03:18:07,2420,42.8014,5.9826,4330,272,186.354,57.072,13.307,36.048,36.628,41.216,4.588,295.8,545.4,291.3
2023-12-26T03:21:08,2420,42.8014,5.9826,4330,272,186.459,57.107,13.310,36.040,36.620,41.205,4.585,295.7,545.4,291.2
2023-12-26T03:24:08,2420,42.8014,5.9826,4330,272,186.465,57.113,13.313,36.038,36.618,41.202,4.584,295.8,545.4,291.1
2023-12-26T03:27:08,2420,42.8014,5.9826,4330,272,186.225,57.037,13.311,36.055,36.635,41.218,4.582,295.8,545.4,291.2
2023-12-26T03:30:07,2420,42.8014,5.9826,4330,272,186.368,57.082,13.312,36.045,36.625,41.213,4.588,295.7,545.4,291.2
2023-12-26T03:33:07,2420,42.8014,5.9826,4330,272,186.387,57.085,13.310,36.045,36.625,41.214,4.589,295.7,545.4,291.2
2023-12-26T03:36:07,2420,42.8014,5.9826,4330,272,186.523,57.124,13.308,36.037,36.617,41.203,4.586,295.7,545.4,291.3
2023-12-26T03:39:07,2420,42.8014,5.9826,4330,272,186.509,57.121,13.309,36.037,36.617,41.203,4.586,295.6,545.5,291.3
2023-12-26T03:42:08,2420,42.8014,5.9826,4330,272,186.589,57.147,13.310,36.031,36.611,41.205,4.594,295.7,545.4,291.2
2023-12-26T03:45:08,2420,42.8014,5.9826,4330,272,186.545,57.134,13.311,36.034,36.614,41.202,4.588,295.7,545.4,291.2
2023-12-26T03:48:08,2420,42.8014,5.9826,4330,272,186.644,57.163,13.309,36.028,36.608,41.197,4.589,295.7,545.4,291.2
2023-12-26T03:51:07,2420,42.8014,5.9826,4330,272,186.542,57.134,13.311,36.034,36.614,41.202,4.588,295.7,545.4,291.2
2023-12-26T03:54:07,2420,42.8014,5.9826,4330,272,186.630,57.157,13.308,36.030,36.610,41.200,4.590,295.7,545.4,291.3
2023-12-26T03:57:07,2420,42.8014,5.9826,4330,272,186.438,57.103,13.312,36.040,36.620,41.207,4.587,295.7,545.4,291.2
2023-12-26T04:00:08,2420,42.8014,5.9826,4330,272,186.411,57.093,13.311,36.042,36.622,41.213,4.590,295.6,545.4,291.2
2023-12-26T04:03:07,2420,42.8014,5.9826,4330,272,186.602,57.151,13.310,36.030,36.610,41.198,4.587,295.7,545.4,291.2
2023-12-26T04:06:07,2420,42.8014,5.9826,4330,272,186.472,57.111,13.310,36.039,36.619,41.210,4.591,295.7,545.4,291.2
2023-12-26T04:09:07,2420,42.8014,5.9826,4330,272,186.547,57.133,13.309,36.035,36.615,41.206,4.591,295.7,545.4,291.2
2023-12-26T04:12:08,2420,42.8014,5.9826,4330,272,186.486,57.116,13.310,36.038,36.618,41.209,4.592,295.8,545.5,291.2
2023-12-26T04:15:08,2420,42.8014,5.9826,4330,272,186.606,57.151,13.309,36.031,36.611,41.207,4.596,295.7,545.5,291.3
2023-12-26T04:18:08,2420,42.8014,5.9826,4330,272,186.531,57.127,13.308,36.036,36.616,41.203,4.588,295.8,545.4,291.3
2023-12-26T04:21:08,2420,42.8014,5.9826,4330,272,186.383,57.086,13.311,36.044,36.624,41.217,4.592,295.8,545.4,291.2
2023-12-26T04:24:07,2420,42.8014,5.9826,4330,272,186.575,57.144,13.311,36.032,36.612,41.201,4.589,295.7,545.4,291.2
2023-12-26T04:27:07,2420,42.8014,5.9826,4330,272,186.587,57.146,13.310,36.032,36.612,41.201,4.589,295.8,545.4,291.2
2023-12-26T04:30:07,2420,42.8014,5.9826,4330,272,186.378,57.081,13.309,36.046,36.626,41.213,4.588,295.6,545.4,291.3
2023-12-26T04:33:07,2420,42.8014,5.9826,4330,272,186.531,57.128,13.309,36.036,36.616,41.205,4.589,295.7,545.4,291.2
2023-12-26T04:36:07,2420,42.8014,5.9826,4330,272,186.285,57.057,13.312,36.050,36.630,41.221,4.591,295.8,545.4,291.1
2023-12-26T04:39:08,2420,42.8014,5.9826,4330,272,186.250,57.045,13.312,36.052,36.632,41.217,4.585,295.8,545.4,291.2
2023-12-26T04:42:08,2420,42.8014,5.9826,4330,272,186.402,57.090,13.310,36.044,36.624,41.212,4.589,295.8,545.4,291.2
2023-12-26T04:45:08,2420,42.8014,5.9826,4330,272,186.445,57.106,13.312,36.040,36.620,41.204,4.585,295.7,545.4,291.2
2023-12-26T04:48:08,2420,42.8014,5.9826,4330,272,186.541,57.130,13.309,36.036,36.616,41.207,4.591,295.7,545.4,291.3
2023-12-26T04:51:07,2420,42.8014,5.9826,4330,272,186.521,57.123,13.308,36.037,36.617,41.207,4.589,295.8,545.4,291.3
2023-12-26T04:54:07,2420,42.8014,5.9826,4330,272,186.534,57.129,13.309,36.036,36.616,41.206,4.590,295.7,545.5,291.3
2023-12-26T04:57:07,2420,42.8014,5.9826,4330,272,186.671,57.169,13.307,36.028,36.608,41.196,4.589,295.7,545.4,291.3
2023-12-26T05:00:07,2420,42.8014,5.9826,4330,272,186.528,57.125,13.308,36.037,36.617,41.205,4.589,295.7,545.4,291.3
2023-12-26T05:03:07,2420,42.8014,5.9826,4330,272,186.389,57.084,13.308,36.045,36.625,41.216,4.591,295.7,545.4,291.3
2023-12-26T05:06:07,2420,42.8014,5.9826,4330,272,186.659,57.166,13.308,36.028,36.608,41.196,4.588,295.7,545.3,291.3
2023-12-26T05:09:08,2420,42.8014,5.9826,4330,272,186.484,57.112,13.308,36.039,36.619,41.212,4.593,295.7,545.4,291.3
2023-12-26T05:12:07,2420,42.8014,5.9826,4330,272,186.262,57.048,13.311,36.052,36.632,41.220,4.587,295.7,545.4,291.2
2023-12-26T05:15:07,2420,42.8014,5.9826,4330,272,186.228,57.034,13.308,36.056,36.636,41.218,4.582,295.7,545.4,291.3
2023-12-26T05:18:07,2420,42.8014,5.9826,4330,272,186.393,57.084,13.307,36.046,36.626,41.212,4.586,295.8,545.4,291.3
2023-12-26T05:21:07,2420,42.8014,5.9826,4330,272,186.327,57.063,13.307,36.050,36.630,41.217,4.588,295.8,545.5,291.3
2023-12-26T05:24:08,2420,42.8014,5.9826,4330,272,186.367,57.077,13.309,36.047,36.627,41.215,4.588,295.7,545.4,291.3
2023-12-26T05:27:08,2420,42.8014,5.9826,4330,272,186.447,57.103,13.310,36.040,36.620,41.212,4.592,295.8,545.4,291.2
2023-12-26T05:30:08,2420,42.8014,5.9826,4330,272,186.682,57.174,13.309,36.026,36.606,41.193,4.587,295.8,545.5,291.3
2023-12-26T05:33:07,2420,42.8014,5.9826,4330,272,186.506,57.119,13.308,36.038,36.618,41.210,4.592,295.8,545.5,291.3
2023-12-26T05:36:07,2420,42.8014,5.9826,4330,272,186.201,57.027,13.309,36.057,36.637,41.222,4.585,295.8,545.4,291.3
2023-12-26T05:39:07,2420,42.8014,5.9826,4330,272,186.179,57.023,13.312,36.057,36.637,41.219,4.582,295.8,545.4,291.2
2023-12-26T05:42:07,2420,42.8014,5.9826,4330,272,186.140,57.010,13.310,36.061,36.641,41.229,4.589,295.7,545.4,291.2
2023-12-26T05:45:08,2420,42.8014,5.9826,4330,272,186.528,57.126,13.308,36.036,36.616,41.205,4.588,295.7,545.4,291.3
2023-12-26T05:48:08,2420,42.8014,5.9826,4330,272,186.515,57.122,13.308,36.037,36.617,41.205,4.588,295.8,545.5,291.3
2023-12-26T05:51:08,2420,42.8014,5.9826,4330,272,186.294,57.055,13.309,36.051,36.631,41.217,4.586,295.8,545.5,291.3
2023-12-26T05:54:07,2420,42.8014,5.9826,4330,272,186.345,57.071,13.309,36.048,36.627,41.218,4.591,295.8,545.5,291.3
2023-12-26T05:57:07,2420,42.8014,5.9826,4330,272,186.390,57.088,13.311,36.044,36.624,41.214,4.590,295.9,545.3,291.2
2023-12-26T06:00:07,2420,42.8014,5.9826,4330,272,186.231,57.038,13.310,36.054,36.634,41.219,4.585,295.9,545.4,291.2
2023-12-26T06:03:07,2420,42.8014,5.9826,4330,272,186.194,57.026,13.310,36.057,36.637,41.220,4.583,295.9,545.4,291.2
2023-12-26T06:06:07,2420,42.8014,5.9826,4330,272,186.216,57.032,13.309,36.056,36.636,41.223,4.587,295.9,545.4,291.3
2023-12-26T06:09:07,2420,42.8014,5.9826,4330,272,186.168,57.020,13.311,36.058,36.638,41.222,4.584,295.8,545.4,291.2
2023-12-26T06:12:08,2420,42.8014,5.9826,4330,272,186.225,57.039,13.313,36.054,36.634,41.224,4.590,295.9,545.4,291.1
2023-12-26T06:15:08,2420,42.8014,5.9826,4330,272,186.160,57.017,13.311,36.059,36.638,41.229,4.591,295.9,545.4,291.2
2023-12-26T06:18:08,2420,42.8014,5.9826,4330,272,186.164,57.018,13.311,36.058,36.638,41.225,4.586,295.8,545.3,291.2
2023-12-26T06:21:08,2420,42.8014,5.9826,4330,272,186.246,57.041,13.309,36.054,36.634,41.220,4.586,295.8,545.5,291.2
2023-12-26T06:24:07,2420,42.8014,5.9826,4330,272,186.106,57.000,13.311,36.062,36.642,41.231,4.589,295.8,545.4,291.2
2023-12-26T06:27:07,2420,42.8014,5.9826,4330,272,186.529,57.127,13.309,36.036,36.616,41.209,4.593,295.9,545.5,291.3
2023-12-26T06:30:07,2420,42.8014,5.9826,4330,272,186.407,57.090,13.309,36.044,36.624,41.209,4.585,295.8,545.4,291.3
2023-12-26T06:33:07,2420,42.8014,5.9826,4330,272,186.305,57.058,13.309,36.051,36.631,41.216,4.585,295.9,545.4,291.3
2023-12-26T06:36:07,2420,42.8014,5.9826,4330,272,186.334,57.068,13.309,36.048,36.628,41.219,4.591,295.8,545.3,291.2
2023-12-26T06:39:07,2420,42.8014,5.9826,4330,272,186.427,57.100,13.312,36.041,36.621,41.211,4.590,295.8,545.4,291.2
2023-12-26T06:42:08,2420,42.8014,5.9826,4330,272,186.045,56.981,13.311,36.067,36.647,41.228,4.582,295.8,545.3,291.2
2023-12-26T06:45:08,2420,42.8014,5.9826,4330,272,186.328,57.066,13.309,36.049,36.629,41.217,4.588,295.8,545.3,291.3
2023-12-26T06:48:08,2420,42.8014,5.9826,4330,272,186.354,57.075,13.310,36.046,36.626,41.211,4.585,295.8,545.4,291.2
2023-12-26T06:51:07,2420,42.8014,5.9826,4330,272,186.306,57.058,13.308,36.051,36.631,41.214,4.583,295.9,545.4,291.3
2023-12-26T06:54:07,2420,42.8014,5.9826,4330,272,186.368,57.077,13.308,36.047,36.627,41.214,4.587,295.8,545.4,291.3
2023-12-26T06:57:08,2420,42.8014,5.9826,4330,272,186.297,57.059,13.311,36.050,36.630,41.217,4.586,295.9,545.4,291.2
2023-12-26T07:00:08,2420,42.8014,5.9826,4330,272,186.244,57.040,13.309,36.055,36.635,41.224,4.589,295.9,545.5,291.3
2023-12-26T07:03:07,2420,42.8014,5.9826,4330,272,186.156,57.012,13.308,36.061,36.641,41.229,4.588,295.8,545.4,291.3
2023-12-26T07:06:07,2420,42.8014,5.9826,4330,272,186.391,57.085,13.309,36.044,36.624,41.216,4.592,295.8,545.4,291.3
2023-12-26T07:09:07,2420,42.8014,5.9826,4330,272,186.220,57.034,13.310,36.055,36.635,41.224,4.589,295.8,545.4,291.2
2023-12-26T07:12:07,2420,42.8014,5.9826,4330,272,186.354,57.077,13.311,36.046,36.626,41.212,4.586,295.8,545.4,291.2
2023-12-26T07:15:07,2420,42.8014,5.9826,4330,272,186.049,56.979,13.308,36.067,36.647,41.237,4.589,295.8,545.4,291.3
2023-12-26T07:18:07,2420,42.8014,5.9826,4330,272,186.165,57.016,13.309,36.060,36.639,41.226,4.587,295.8,545.4,291.3
2023-12-26T07:21:07,2420,42.8014,5.9826,4330,272,186.414,57.091,13.308,36.043,36.623,41.210,4.586,295.9,545.4,291.3
2023-12-26T07:24:07,2420,42.8014,5.9826,4330,272,186.067,56.986,13.309,36.066,36.646,41.230,4.583,295.8,545.4,291.3
2023-12-26T07:27:08,2420,42.8014,5.9826,4330,272,186.310,57.062,13.310,36.050,36.630,41.214,4.584,295.9,545.4,291.2
2023-12-26T07:30:08,2420,42.8014,5.9826,4330,272,186.015,56.974,13.312,36.068,36.648,41.232,4.584,295.8,545.4,291.2
2023-12-26T07:33:07,2420,42.8014,5.9826,4330,272,186.360,57.078,13.311,36.046,36.626,41.214,4.588,295.8,545.4,291.2
2023-12-26T07:36:07,2420,42.8014,5.9826,4330,272,186.510,57.128,13.314,36.035,36.615,41.210,4.595,295.8,545.4,291.1
2023-12-26T07:39:07,2420,42.8014,5.9826,4330,272,186.184,57.027,13.313,36.056,36.636,41.218,4.582,295.8,545.3,291.1
2023-12-26T07:42:07,2420,42.8014,5.9826,4330,272,186.297,57.059,13.311,36.050,36.630,41.217,4.587,295.8,545.4,291.2
2023-12-26T07:45:08,2420,42.8014,5.9826,4330,272,186.400,57.092,13.312,36.042,36.622,41.209,4.586,295.8,545.4,291.1
2023-12-26T07:48:08,2420,42.8014,5.9826,4330,272,186.117,57.002,13.310,36.062,36.642,41.228,4.587,295.8,545.3,291.2
2023-12-26T07:51:07,2420,42.8014,5.9826,4330,272,186.189,57.027,13.312,36.056,36.636,41.217,4.581,295.8,545.4,291.2
2023-12-26T07:54:07,2420,42.8014,5.9826,4330,272,186.421,57.095,13.309,36.043,36.623,41.212,4.589,295.8,545.4,291.3
2023-12-26T07:57:07,2420,42.8014,5.9826,4330,272,186.123,57.006,13.311,36.062,36.641,41.230,4.589,295.8,545.4,291.2
2023-12-26T08:00:07,2420,42.8014,5.9826,4330,272,186.184,57.028,13.314,36.056,36.636,41.223,4.586,295.8,545.3,291.1
2023-12-26T08:03:07,2420,42.8014,5.9826,4330,272,186.392,57.091,13.313,36.043,36.623,41.211,4.588,295.8,545.4,291.1
2023-12-26T08:06:07,2420,42.8014,5.9826,4330,272,186.298,57.063,13.314,36.048,36.628,41.213,4.584,295.8,545.4,291.1
2023-12-26T08:09:08,2420,42.8014,5.9826,4330,272,186.119,57.008,13.314,36.060,36.640,41.227,4.587,295.8,545.3,291.1
2023-12-26T08:12:07,2420,42.8014,5.9826,4330,272,186.124,57.010,13.314,36.060,36.640,41.227,4.587,295.9,545.3,291.1
2023-12-26T08:15:07,2420,42.8014,5.9826,4330,272,186.182,57.022,13.310,36.059,36.638,41.224,4.585,295.9,545.4,291.2
2023-12-26T08:18:07,2420,42.8014,5.9826,4330,272,186.223,57.037,13.311,36.055,36.635,41.217,4.581,295.9,545.3,291.2
2023-12-26T08:21:07,2420,42.8014,5.9826,4330,272,185.936,56.949,13.312,36.073,36.653,41.241,4.588,295.9,545.4,291.2
2023-12-26T08:24:08,2420,42.8014,5.9826,4330,272,186.545,57.138,13.313,36.033,36.613,41.196,4.583,295.8,545.4,291.1
2023-12-26T08:27:08,2420,42.8014,5.9826,4330,272,186.252,57.049,13.314,36.051,36.631,41.220,4.589,295.9,545.3,291.1
2023-12-26T08:30:08,2420,42.8014,5.9826,4330,272,186.027,56.985,13.318,36.064,36.644,41.239,4.595,295.9,545.3,291.0
2023-12-26T08:33:07,2420,42.8014,5.9826,4330,272,186.304,57.065,13.314,36.048,36.628,41.213,4.585,295.8,545.3,291.1
2023-12-26T08:36:07,2420,42.8014,5.9826,4330,272,186.243,57.046,13.313,36.052,36.632,41.223,4.591,295.8,545.3,291.1
2023-12-26T08:39:07,2420,42.8014,5.9826,4330,272,186.061,56.994,13.317,36.063,36.642,41.232,4.590,295.8,545.3,291.0
2023-12-26T08:42:07,2420,42.8014,5.9826,4330,272,186.130,57.015,13.316,36.058,36.638,41.221,4.584,295.9,545.3,291.0
2023-12-26T08:45:08,2420,42.8014,5.9826,4330,272,186.201,57.030,13.312,36.056,36.636,41.219,4.583,295.8,545.4,291.2
2023-12-26T08:48:08,2420,42.8014,5.9826,4330,272,186.404,57.092,13.311,36.043,36.623,41.213,4.590,295.9,545.3,291.2
2023-12-26T08:51:08,2420,42.8014,5.9826,4330,272,186.200,57.031,13.312,36.055,36.635,41.224,4.589,295.8,545.4,291.1
2023-12-26T08:54:08,2420,42.8014,5.9826,4330,272,186.509,57.129,13.315,36.034,36.614,41.198,4.584,295.8,545.4,291.0
2023-12-26T08:57:07,2420,42.8014,5.9826,4330,272,185.912,56.949,13.317,36.073,36.652,41.235,4.583,295.9,545.3,291.0
2023-12-26T09:00:07,2420,42.8014,5.9826,4330,272,186.324,57.074,13.317,36.045,36.625,41.211,4.586,295.9,545.4,291.0
2023-12-26T09:03:07,2420,42.8014,5.9826,4330,272,186.306,57.070,13.317,36.046,36.626,41.214,4.588,295.9,545.3,291.0
2023-12-26T09:06:07,2420,42.8014,5.9826,4330,272,186.197,57.036,13.317,36.053,36.633,41.224,4.591,295.8,545.3,291.0
2023-12-26T09:09:07,2420,42.8014,5.9826,4330,272,186.215,57.039,13.315,36.053,36.633,41.218,4.585,295.8,545.3,291.1
2023-12-26T09:12:07,2420,42.8014,5.9826,4330,272,186.141,57.018,13.316,36.058,36.638,41.227,4.589,295.9,545.4,291.0
2023-12-26T09:15:08,2420,42.8014,5.9826,4330,272,186.325,57.073,13.315,36.046,36.626,41.218,4.591,295.9,545.3,291.0
2023-12-26T09:18:08,2420,42.8014,5.9826,4330,272,186.013,56.997,13.331,36.059,36.639,41.226,4.587,295.9,545.3,290.5
2023-12-26T09:21:08,2420,42.8014,5.9826,4330,272,185.952,56.974,13.328,36.064,36.644,41.229,4.585,295.8,545.3,290.6
2023-12-26T09:24:08,2420,42.8014,5.9826,4330,272,186.345,57.097,13.330,36.038,36.618,41.208,4.590,295.8,545.3,290.6
2023-12-26T09:27:07,2420,42.8014,5.9826,4330,272,186.152,57.020,13.315,36.057,36.637,41.228,4.591,295.9,545.3,291.1
2023-12-26T09:30:07,2420,42.8014,5.9826,4330,272,186.278,57.064,13.320,36.047,36.627,41.217,4.590,295.9,545.3,290.9
2023-12-26T09:33:08,2420,42.8014,5.9826,4330,272,186.104,57.012,13.321,36.058,36.638,41.222,4.584,295.9,545.4,290.9
2023-12-26T09:36:07,2420,42.8014,5.9826,4330,272,186.024,56.979,13.314,36.067,36.646,41.234,4.587,295.8,545.3,291.1
2023-12-26T09:39:07,2420,42.8014,5.9826,4330,272,186.098,57.001,13.313,36.062,36.641,41.228,4.587,295.8,545.4,291.1
2023-12-26T09:42:07,2420,42.8014,5.9826,4330,272,186.041,56.983,13.313,36.066,36.646,41.234,4.588,295.9,545.4,291.1
2023-12-26T09:45:07,2420,42.8014,5.9826,4330,272,186.231,57.047,13.318,36.051,36.631,41.220,4.589,295.8,545.4,291.0
2023-12-26T09:48:08,2420,42.8014,5.9826,4330,272,186.248,57.048,13.315,36.052,36.632,41.221,4.590,295.8,545.4,291.1
2023-12-26T09:51:08,2420,42.8014,5.9826,4330,272,186.184,57.034,13.319,36.054,36.634,41.219,4.586,295.8,545.3,290.9
2023-12-26T09:54:08,2420,42.8014,5.9826,4330,272,186.293,57.067,13.318,36.047,36.627,41.211,4.584,295.8,545.3,291.0
2023-12-26T09:57:08,2420,42.8014,5.9826,4330,272,186.227,57.045,13.317,36.051,36.631,41.225,4.594,295.9,545.3,291.0
2023-12-26T10:00:07,2420,42.8014,5.9826,4330,272,186.076,56.995,13.314,36.063,36.643,41.231,4.588,295.9,545.3,291.1